Tracking 29892 objects as of 21-Nov-2024
HD Live streaming from Space Station
objects crossing your sky now

USA 271

Track USA 271 now!


NORAD ID: 41745
Int'l Code: 2016-052B
Perigee: 35,834.9 km
Apogee: 35,848.2 km
Inclination: 2.7 °
Period: 1,438.5 minutes
Semi major axis: 42212 km
RCS: Unknown
Launch date: August 19, 2016
Source: United States (US)
Launch site: AIR FORCE EASTERN TEST RANGE (AFETR)
Your satellite tracking list
Your tracking list is empty




NASA's NSSDC Master Catalog

Two Line Element Set (TLE):
1 41745U 16052B   24325.68038796 -.00000296  00000-0  00000+0 0  9995
2 41745   2.6959  84.4977 0001565 220.6608 140.8304  1.00101478  1647
Source of the keplerian elements: McCants